Regional Weather Roundup
Issued by NWS Little Rock, AR

Home | Current Version | Previous Version | Graphics & Text | Print | Product List | Glossary On
Versions: 1 2 3 4 5 6 7 8 9 10 11 12 13 14 15 16 17 18 19 20 21 22 23 24 25 26 27
000
ASUS44 KLZK 260305
RWRLZK

WEATHER ROUNDUP FOR ARKANSAS
NATIONAL WEATHER SERVICE LITTLE ROCK AR
1000 PM CDT THU AUG 25 2016

NOTE: "FAIR" INDICATES FEW OR NO CLOUDS BELOW 12,000 FEET WITH NO
SIGNIFICANT WEATHER AND/OR OBSTRUCTIONS TO VISIBILITY.

ARZ001-003-010-029-260400-
NORTHWEST ARKANSAS

CITY           SKY/WX    TMP DP  RH WIND       PRES   REMARKS
FAYETTEVILLE   MOCLDY    75  68  78 S3        30.09R
FORT SMITH     CLOUDY    77  69  76 E8        30.06R
HARRISON       MOCLDY    76  70  82 SE6       30.11R
BENTONVILLE    MOCLDY    79  66  65 W6        30.11R
ROGERS         CLOUDY    80  69  69 S7        30.11R
SILOAM SPGS    CLOUDY    77  61  57 CALM      30.11F
HIGHFILL       CLOUDY    79  67  66 S6        30.10R
$$

ARZ004-005-016-260400-
NORTH CENTRAL ARKANSAS

CITY           SKY/WX    TMP DP  RH WIND       PRES   REMARKS
BATESVILLE     CLOUDY    81  73  78 CALM      30.08R HX  85
FLIPPIN        CLOUDY    79  72  78 NE5       30.06R
MTN HOME       CLOUDY    76  75  97 CALM      30.09R
$$

ARZ040-041-260400-
WEST CENTRAL ARKANSAS

CITY           SKY/WX    TMP DP  RH WIND       PRES   REMARKS
MENA           CLOUDY    75  73  94 CALM      30.10R
MOUNT IDA      CLOUDY    76  70  82 VRB3      30.07
$$

ARZ009-017-025-026-028-260400-
NORTHEAST ARKANSAS

CITY           SKY/WX    TMP DP  RH WIND       PRES   REMARKS
CORNING          N/A     81  81 100 S3        30.07R HX  91
JONESBORO      PTCLDY    80  75  84 S7        30.07R HX  85
NEWPORT        CLOUDY    82  78  88 W6        30.08R HX  91
WALNUT RIDGE   CLOUDY    81  75  83 S6        30.06R HX  86
BLYTHEVILLE    PTCLDY    81  76  84 S5        30.07R HX  87
$$

ARZ022-023-033-042-044-260400-
CENTRAL ARKANSAS

CITY           SKY/WX    TMP DP  RH WIND       PRES   REMARKS
LITTLE ROCK    LGT RAIN  79  74  84 S3        30.07R
N LITTLE ROCK    N/A     76  73  92 CALM      30.05R
JACKSONVILLE   CLOUDY    78  78  99 CALM      30.07R
SEARCY         CLOUDY    78  78 100 CALM      30.09R
HOT SPRINGS    LGT RAIN  75  73  93 CALM      30.09S
RUSSELLVILLE   CLOUDY    74  73  97 CALM      30.07R
$$

ARZ036-260400-
EAST ARKANSAS

CITY           SKY/WX    TMP DP  RH WIND       PRES   REMARKS
WEST MEMPHIS   CLOUDY    75  74  96 SE5       30.06R
$$

ARZ050-053-066-070-073-260400-
SOUTHWEST ARKANSAS

CITY           SKY/WX    TMP DP  RH WIND       PRES   REMARKS
ARKADELPHIA    FAIR      74  74 100 S5        30.10S
CAMDEN         LGT RAIN  73  72  94 S6        30.12S
TEXARKANA      LGT RAIN  75  73  93 CALM      30.10R
EL DORADO      RAIN      74  73  97 S7        30.14F
DE QUEEN       CLOUDY    74  74 100 SE3       30.07R
$$

ARZ056-057-069-260400-
SOUTHEAST ARKANSAS

CITY           SKY/WX    TMP DP  RH WIND       PRES   REMARKS
PINE BLUFF     CLOUDY    75  72  90 S8        30.10F
STUTTGART      CLOUDY    79  73  83 SE3       30.09R
MONTICELLO     LGT RAIN  75  71  87 S10G20    30.13R

$$






USA.gov is the U.S. government's official web portal to all federal, state and local government web resources and services.